Wind_Speed
9 9 10 11 12 13 14 15 17 18 20 21 23 24 25 27 28 29 29 30 31 32 33 34 34 35 36 37 38 38 39 38 38 39 39 39 39 39 39 40 40 40 40
12 13 13 14 15 17 18 19 21 22 23 25 26 27 28 30 31 32 33 34 35 35 36 37 38 39 40 40 41 42 43 43 44 44 45 45 46 46 47 47 47 47 47
17 18 19 20 21 22 22 23 24 26 27 28 29 31 32 33 34 35 36 36 37 38 38 39 40 40 41 42 42 43 44 45 46 47 48 49 50 51 52 52 52 52 52
22 23 25 26 26 27 27 27 28 30 31 32 33 34 35 36 37 38 39 40 40 41 42 42 42 42 43 43 43 44 45 45 47 47 49 50 51 52 53 53 54 54 54
27 28 30 31 31 31 31 31 32 33 34 35 37 38 39 40 41 41 42 43 44 45 46 46 46 45 45 45 46 47 48 49 50 51 52 53 53 54 54 54 54 54 53
33 33 34 34 34 33 32 32 34 34 36 38 39 40 41 42 42 43 44 45 46 47 48 48 49 49 49 49 50 51 53 54 55 56 57 57 57 57 57 56 55 54 53
35 36 35 34 35 33 32 32 33 35 37 38 39 41 42 43 43 44 45 46 47 49 50 51 51 52 53 54 56 57 58 60 61 62 62 61 60 60 59 58 57 56 54
34 34 34 34 33 33 33 34 35 37 38 38 40 41 42 44 45 46 47 48 50 52 53 55 56 58 59 60 61 62 62 62 62 62 62 61 60 60 59 59 58 57 56
31 32 32 33 34 35 37 37 38 39 40 41 42 43 44 45 47 49 50 52 54 57 58 60 61 62 63 64 63 62 62 61 60 60 60 60 60 60 60 60 59 59 59
28 30 31 34 35 37 38 40 41 43 44 45 45 47 48 49 51 53 54 57 59 62 63 64 64 65 65 65 64 64 64 63 64 64 64 64 64 64 64 63 63 63 62
28 30 34 36 37 40 42 44 45 47 48 49 51 52 53 55 56 58 59 61 63 65 66 66 66 66 66 67 67 67 68 68 69 69 69 69 69 69 68 68 67 66 65
30 32 36 39 41 44 46 48 50 51 53 54 56 57 59 61 62 63 64 63 63 64 66 67 68 68 69 69 70 70 71 71 72 73 73 73 73 73 73 72 70 69 67
34 36 39 43 45 48 51 53 55 56 58 59 61 63 64 66 67 67 67 66 64 62 64 66 68 69 70 71 71 72 72 73 74 74 75 75 76 76 75 74 73 71 69
37 40 44 47 49 52 55 57 59 60 62 64 66 68 69 70 70 69 67 67 65 64 64 64 66 69 70 71 71 72 72 73 74 74 75 76 76 76 76 76 75 74 72
41 45 47 51 54 56 59 62 63 65 67 69 70 71 71 70 69 67 66 66 66 64 62 64 66 68 70 70 71 72 73 73 74 74 73 73 73 72 71 71 72 72 71
46 49 52 56 58 61 64 66 67 69 71 71 71 70 69 67 66 66 66 65 66 65 62 63 66 68 70 71 71 71 71 70 67 65 64 62 62 61 60 60 61 63 64
51 54 57 60 62 65 67 69 70 71 71 70 69 67 66 65 64 63 63 64 65 65 64 64 66 68 69 69 68 67 63 59 55 52 51 49 49 49 49 50 51 52 55
56 58 61 63 65 67 69 70 70 69 68 66 65 65 64 62 62 63 63 64 65 66 66 65 64 64 63 61 58 53 48 44 42 41 41 40 40 40 41 41 42 43 45
58 60 62 64 66 67 68 68 67 65 64 63 62 61 61 61 61 62 63 64 65 65 64 62 58 55 50 46 42 38 35 34 32 32 31 32 32 33 33 34 34 35 36
59 61 63 64 65 65 64 64 63 62 61 60 60 60 60 61 61 62 62 62 62 59 56 51 45 40 36 33 30 27 26 26 26 25 24 25 26 27 27 27 27 28 30
59 60 61 61 61 60 60 60 59 58 58 58 58 59 60 60 61 60 59 57 53 48 42 36 32 29 27 25 24 22 21 22 22 21 20 21 21 21 22 22 22 23 25
56 57 57 57 57 57 56 56 55 56 56 56 57 58 58 57 56 54 51 47 42 36 29 25 23 22 21 21 20 19 19 18 19 18 18 18 18 18 18 17 18 18 20
53 53 53 53 52 53 54 54 54 54 54 54 54 53 52 51 48 43 38 34 30 25 21 19 18 19 19 19 19 18 18 18 18 18 18 17 17 15 15 13 13 14 15
49 49 49 50 51 51 51 51 52 52 52 51 48 46 44 40 36 31 27 24 21 19 18 17 18 18 19 19 19 19 19 20 21 20 19 18 17 16 14 13 12 11 12
47 47 48 48 49 49 49 49 49 47 46 43 41 38 33 28 25 21 18 16 15 15 16 17 18 19 20 20 21 21 21 21 20 21 20 19 18 17 16 14 13 12 11
46 46 46 47 47 47 47 45 43 40 38 36 33 29 24 19 15 13 12 12 13 15 17 18 20 20 20 20 20 19 18 17 16 16 16 15 15 14 14 14 13 12 12
Wind_Direction
299 299 301 304 305 306 308 309 310 310 310 309 308 306 302 299 296 293 291 289 287 286 284 283 282 282 281 281 280 280 279 278 277 277 276 275 274 273 273 273 274 275 276
297 297 297 298 299 299 301 303 305 307 309 309 308 307 304 300 296 293 289 287 285 284 283 283 282 282 281 280 280 279 278 277 276 275 274 274 273 272 272 272 273 273 274
289 289 289 290 291 292 294 296 299 301 303 304 303 301 300 298 295 293 291 289 288 287 286 285 284 283 283 282 282 281 280 278 277 275 274 273 272 271 271 271 271 271 272
281 283 284 285 286 288 290 292 295 297 298 299 300 299 298 297 296 295 293 292 291 290 289 287 286 285 284 283 283 283 282 281 279 277 276 275 273 272 271 271 270 270 270
276 278 280 281 283 283 286 289 292 294 296 298 300 300 299 298 298 297 295 292 291 290 289 289 288 286 285 283 282 282 282 281 280 279 278 276 275 274 273 272 271 270 269
276 276 279 280 282 282 284 288 291 294 297 299 300 300 300 299 299 297 295 293 291 290 290 289 288 286 285 283 282 282 281 281 280 280 279 278 277 276 275 274 273 271 269
277 276 279 281 282 282 285 290 295 298 300 301 301 301 300 299 299 297 295 293 292 291 290 289 287 286 285 284 283 282 281 280 280 279 279 279 278 277 276 274 272 270 267
278 278 280 280 283 287 290 295 301 303 304 304 303 301 300 299 299 297 296 294 292 291 290 289 287 286 285 284 283 282 282 281 280 280 279 277 276 275 273 272 270 268 265
279 280 283 289 292 294 300 303 307 307 305 304 303 301 300 299 297 296 295 294 292 291 290 289 288 287 286 285 284 282 281 280 280 279 279 277 276 274 272 270 268 267 265
286 288 294 297 297 301 304 306 308 307 305 303 301 300 299 298 297 296 295 294 293 292 291 290 289 288 287 285 284 282 281 280 279 278 278 277 275 273 271 270 268 267 266
295 295 298 298 302 304 305 306 306 305 304 302 301 300 299 299 298 297 296 294 294 293 293 291 290 288 287 285 284 282 281 280 279 278 276 275 274 272 270 269 268 266 265
297 297 299 301 303 304 304 304 303 303 302 302 301 300 300 300 299 298 297 295 293 292 292 291 290 288 286 285 284 283 282 280 279 278 276 275 273 272 270 269 268 266 265
295 297 299 301 302 302 302 302 302 301 301 301 301 301 301 300 299 298 297 296 294 292 292 291 289 288 287 286 284 283 282 281 280 278 277 276 275 273 271 270 268 266 264
295 298 299 300 301 300 300 300 301 300 300 300 301 301 301 301 300 298 297 296 294 292 291 289 288 287 287 286 285 284 283 283 281 280 279 278 277 275 274 272 269 267 264
296 298 299 299 299 299 299 300 300 299 300 300 301 301 301 300 300 299 297 296 295 293 291 289 287 286 286 286 286 286 285 285 284 284 283 281 279 277 274 271 269 265 262
296 297 297 297 297 298 298 299 299 299 300 300 301 301 301 300 299 298 297 296 295 294 293 290 288 287 287 287 288 288 288 289 288 286 284 282 279 276 273 270 266 262 258
296 297 297 297 297 297 298 298 299 299 300 300 301 301 300 299 299 298 297 296 295 294 294 292 291 290 290 291 291 291 291 290 289 287 285 282 279 276 273 270 266 261 256
295 295 296 296 296 296 297 297 298 299 300 300 301 301 300 300 299 298 297 296 296 295 295 294 293 294 294 294 294 295 294 292 290 287 285 283 280 277 274 271 267 262 257
294 295 295 295 295 296 297 298 299 300 300 301 301 301 300 300 299 298 297 296 296 296 297 297 297 297 298 298 297 297 297 295 293 291 289 287 284 281 278 274 269 264 258
294 294 294 295 295 296 298 299 300 301 302 302 302 301 300 300 299 298 298 298 298 299 300 302 302 301 300 300 301 301 300 299 299 298 296 291 288 286 282 277 271 264 257
293 294 294 295 296 297 298 300 301 301 302 302 302 301 300 300 299 300 300 300 301 303 304 303 303 303 303 304 305 305 304 303 304 305 303 298 295 291 286 280 273 265 257
293 294 294 295 297 298 299 300 301 302 302 302 301 301 301 302 302 303 304 304 305 306 306 305 305 306 307 308 308 308 307 307 307 309 309 306 303 297 293 288 277 267 257
294 294 295 296 298 299 299 300 301 301 301 301 301 302 303 304 306 306 307 307 308 311 313 313 312 312 312 312 311 310 310 309 308 307 307 306 306 303 300 297 287 272 258
294 295 296 297 298 299 299 300 300 300 301 302 303 305 307 308 308 308 308 308 311 316 318 319 320 319 317 315 313 311 309 307 306 304 302 301 300 300 298 295 290 281 265
295 296 297 297 298 298 299 299 300 301 303 304 306 308 310 310 309 310 312 314 318 322 325 326 325 323 320 318 315 312 310 308 305 303 302 298 294 291 289 287 284 279 270
295 296 297 297 298 298 299 300 301 303 305 308 310 312 314 314 316 321 326 329 331 331 330 329 326 324 322 321 321 321 319 317 314 313 311 307 301 293 287 283 279 274 269
Height
5865 5864 5864 5863 5862 5861 5860 5859 5858 5858 5856 5855 5854 5853 5852 5851 5850 5849 5849 5848 5847 5846 5845 5844 5842 5841 5840 5838 5837 5836 5835 5834 5833 5832 5832 5832 5832 5832 5833 5833 5834 5835 5835
5862 5861 5860 5859 5859 5858 5857 5855 5854 5853 5852 5851 5849 5848 5846 5845 5844 5843 5842 5841 5839 5838 5837 5835 5834 5832 5831 5829 5828 5827 5826 5825 5823 5823 5822 5822 5822 5822 5823 5823 5823 5824 5825
5857 5857 5856 5855 5854 5853 5852 5850 5849 5848 5847 5845 5844 5842 5841 5839 5837 5835 5834 5832 5830 5828 5826 5825 5823 5821 5820 5818 5817 5815 5814 5813 5812 5811 5811 5810 5810 5810 5810 5811 5812 5812 5813
5852 5851 5850 5848 5847 5846 5845 5844 5843 5842 5840 5838 5837 5835 5833 5831 5828 5826 5824 5822 5820 5817 5815 5813 5811 5810 5808 5806 5805 5803 5802 5801 5799 5799 5798 5797 5797 5796 5797 5797 5798 5798 5799
5845 5844 5842 5841 5839 5838 5837 5836 5835 5834 5832 5831 5828 5826 5823 5821 5819 5816 5814 5811 5808 5806 5803 5801 5799 5797 5796 5794 5792 5791 5789 5788 5787 5785 5784 5783 5783 5782 5782 5782 5783 5783 5784
5837 5835 5834 5832 5831 5830 5830 5829 5827 5826 5824 5822 5820 5817 5814 5811 5808 5806 5803 5800 5797 5794 5792 5789 5787 5784 5782 5780 5779 5777 5775 5774 5772 5771 5770 5769 5768 5767 5767 5767 5767 5768 5768
5829 5827 5826 5825 5823 5822 5822 5821 5819 5818 5816 5814 5811 5808 5804 5801 5799 5796 5792 5789 5786 5783 5780 5777 5774 5771 5769 5766 5764 5762 5760 5758 5756 5755 5753 5752 5751 5751 5750 5750 5750 5751 5752
5820 5819 5818 5817 5816 5815 5813 5812 5810 5809 5807 5804 5802 5798 5795 5792 5789 5785 5782 5778 5774 5771 5767 5764 5760 5757 5754 5751 5749 5746 5744 5742 5740 5738 5736 5735 5734 5733 5733 5733 5733 5734 5735
5813 5811 5810 5809 5808 5806 5805 5803 5801 5799 5797 5795 5792 5789 5785 5782 5778 5775 5771 5766 5762 5758 5753 5750 5746 5742 5738 5735 5732 5729 5727 5725 5722 5720 5719 5717 5716 5715 5715 5715 5715 5716 5717
5806 5804 5803 5802 5800 5798 5796 5794 5792 5790 5787 5784 5781 5778 5774 5770 5767 5763 5759 5754 5748 5743 5738 5734 5729 5725 5721 5717 5714 5711 5709 5707 5704 5702 5701 5699 5698 5697 5696 5696 5696 5697 5698
5799 5797 5796 5795 5792 5790 5787 5785 5782 5780 5777 5773 5770 5766 5762 5758 5753 5749 5746 5741 5734 5727 5721 5716 5711 5707 5702 5698 5695 5692 5689 5687 5685 5682 5680 5678 5677 5676 5676 5676 5676 5677 5678
5792 5790 5788 5786 5784 5781 5778 5775 5772 5769 5765 5762 5757 5753 5749 5744 5738 5733 5729 5725 5720 5714 5706 5698 5692 5687 5682 5678 5675 5671 5668 5665 5662 5660 5657 5656 5654 5654 5654 5654 5654 5656 5657
5785 5783 5781 5778 5775 5772 5768 5765 5761 5757 5753 5749 5744 5739 5733 5727 5722 5716 5711 5707 5703 5699 5692 5682 5673 5666 5661 5657 5653 5649 5645 5642 5639 5636 5633 5631 5630 5629 5629 5630 5631 5632 5635
5777 5775 5772 5769 5765 5762 5758 5754 5750 5745 5740 5735 5729 5723 5717 5710 5704 5698 5692 5687 5684 5681 5676 5667 5656 5647 5640 5636 5631 5627 5623 5619 5616 5612 5610 5607 5605 5604 5604 5604 5605 5607 5610
5769 5766 5762 5759 5755 5751 5746 5742 5737 5732 5726 5720 5714 5707 5700 5693 5686 5680 5674 5667 5663 5661 5659 5650 5640 5631 5622 5617 5611 5606 5602 5597 5593 5589 5585 5583 5580 5578 5577 5577 5578 5580 5584
5759 5755 5751 5747 5743 5738 5734 5729 5723 5717 5711 5705 5698 5691 5684 5677 5670 5663 5657 5650 5643 5639 5637 5632 5622 5613 5605 5598 5592 5586 5581 5576 5571 5566 5562 5559 5556 5553 5552 5552 5553 5554 5558
5747 5743 5739 5735 5730 5725 5719 5714 5708 5702 5696 5689 5682 5676 5669 5662 5655 5647 5640 5633 5626 5620 5617 5613 5603 5594 5586 5579 5573 5566 5561 5556 5551 5547 5543 5539 5536 5534 5533 5532 5532 5533 5536
5735 5731 5726 5721 5716 5711 5705 5699 5693 5687 5680 5674 5667 5660 5653 5646 5639 5631 5624 5617 5609 5602 5597 5593 5586 5576 5568 5561 5555 5550 5545 5540 5536 5532 5528 5525 5522 5519 5518 5517 5516 5517 5519
5722 5717 5712 5707 5702 5696 5690 5684 5678 5671 5665 5659 5652 5645 5638 5631 5623 5616 5608 5601 5593 5586 5578 5573 5568 5560 5553 5546 5542 5538 5533 5528 5524 5520 5517 5514 5511 5508 5506 5505 5504 5505 5507
5709 5704 5698 5692 5687 5681 5675 5669 5663 5657 5650 5644 5637 5630 5623 5616 5609 5601 5593 5585 5578 5571 5564 5558 5552 5547 5541 5536 5532 5529 5525 5520 5516 5513 5509 5506 5502 5500 5498 5496 5495 5496 5497
5695 5689 5684 5678 5672 5667 5661 5655 5649 5643 5637 5630 5623 5616 5608 5601 5594 5586 5579 5571 5564 5558 5552 5547 5542 5538 5534 5530 5526 5522 5519 5515 5510 5507 5503 5500 5496 5494 5491 5489 5488 5488 5489
5681 5675 5670 5664 5659 5653 5648 5642 5636 5630 5624 5618 5611 5603 5594 5587 5580 5573 5565 5558 5553 5548 5544 5540 5536 5532 5528 5525 5521 5517 5514 5510 5506 5503 5499 5496 5492 5489 5486 5484 5483 5483 5483
5667 5661 5656 5651 5646 5641 5636 5630 5624 5618 5612 5606 5599 5591 5583 5576 5569 5563 5556 5550 5545 5541 5538 5534 5531 5528 5524 5521 5517 5513 5509 5506 5502 5499 5495 5492 5489 5486 5483 5481 5479 5478 5479
5654 5649 5644 5639 5634 5629 5624 5618 5612 5606 5600 5594 5588 5581 5574 5567 5561 5556 5551 5546 5542 5538 5534 5531 5527 5524 5520 5516 5512 5509 5505 5502 5498 5494 5491 5488 5485 5483 5480 5478 5477 5476 5476
5642 5637 5632 5627 5622 5617 5612 5607 5601 5595 5589 5583 5578 5572 5567 5561 5556 5551 5547 5543 5540 5536 5532 5528 5524 5520 5516 5512 5508 5504 5500 5497 5493 5489 5486 5484 5481 5479 5477 5475 5474 5473 5473
5630 5625 5620 5615 5610 5605 5600 5595 5590 5585 5580 5575 5571 5566 5561 5557 5552 5548 5545 5542 5538 5534 5530 5526 5522 5517 5513 5508 5504 5500 5496 5492 5489 5485 5482 5479 5477 5475 5473 5472 5471 5471 5471